Total_Precipitation_Accumulation
0.00 0.00 0.01 0.01 0.01 0.00 0.00 0.00 0.00 0.00 0.00 0.00 0.00 0.00 0.00 0.00 0.00 0.00 0.00 0.00 0.00 0.01 0.01 0.02 0.05 0.08 0.09 0.10 0.10 0.10 0.07 0.03 0.02 0.02 0.01 0.00 0.00 0.00 0.00 0.00 0.00 0.01 0.01
0.00 0.00 0.00 0.01 0.01 0.00 0.00 0.00 0.00 0.00 0.00 0.00 0.00 0.00 0.00 0.00 0.00 0.00 0.00 0.00 0.00 0.00 0.01 0.03 0.05 0.08 0.11 0.14 0.15 0.16 0.13 0.08 0.06 0.04 0.02 0.01 0.01 0.00 0.00 0.00 0.00 0.00 0.00
0.00 0.00 0.00 0.00 0.00 0.01 0.00 0.00 0.00 0.00 0.00 0.00 0.00 0.00 0.00 0.00 0.00 0.00 0.00 0.00 0.00 0.00 0.00 0.02 0.04 0.08 0.12 0.15 0.18 0.20 0.19 0.15 0.10 0.07 0.05 0.04 0.03 0.02 0.01 0.01 0.00 0.00 0.00
0.02 0.01 0.01 0.01 0.01 0.01 0.01 0.02 0.02 0.02 0.01 0.01 0.01 0.01 0.01 0.01 0.01 0.00 0.00 0.00 0.00 0.00 0.00 0.01 0.03 0.06 0.09 0.10 0.14 0.19 0.23 0.20 0.14 0.10 0.09 0.08 0.06 0.05 0.04 0.02 0.01 0.00 0.00
0.09 0.06 0.03 0.03 0.03 0.03 0.04 0.04 0.04 0.04 0.04 0.04 0.04 0.04 0.03 0.02 0.01 0.01 0.01 0.01 0.01 0.01 0.01 0.01 0.01 0.02 0.03 0.05 0.08 0.14 0.20 0.24 0.19 0.14 0.12 0.12 0.10 0.08 0.07 0.06 0.05 0.03 0.02
0.20 0.16 0.11 0.09 0.08 0.06 0.06 0.07 0.09 0.09 0.08 0.08 0.07 0.04 0.02 0.02 0.02 0.01 0.01 0.01 0.01 0.02 0.02 0.01 0.01 0.01 0.01 0.03 0.04 0.07 0.12 0.19 0.21 0.19 0.16 0.16 0.15 0.14 0.13 0.12 0.11 0.10 0.07
0.32 0.28 0.20 0.16 0.15 0.12 0.11 0.14 0.16 0.14 0.12 0.13 0.10 0.04 0.02 0.01 0.01 0.01 0.01 0.01 0.01 0.02 0.02 0.02 0.02 0.01 0.01 0.02 0.02 0.03 0.06 0.12 0.19 0.23 0.22 0.21 0.20 0.19 0.19 0.19 0.19 0.17 0.14
0.44 0.39 0.34 0.33 0.31 0.26 0.21 0.19 0.19 0.16 0.16 0.19 0.17 0.13 0.05 0.01 0.00 0.01 0.01 0.01 0.02 0.02 0.02 0.03 0.03 0.02 0.02 0.02 0.02 0.02 0.03 0.07 0.15 0.23 0.27 0.26 0.25 0.25 0.26 0.27 0.28 0.27 0.24
0.60 0.54 0.50 0.49 0.43 0.36 0.28 0.28 0.29 0.28 0.25 0.23 0.22 0.22 0.13 0.04 0.03 0.01 0.01 0.02 0.02 0.02 0.02 0.03 0.03 0.03 0.03 0.02 0.03 0.03 0.04 0.05 0.10 0.19 0.28 0.32 0.31 0.32 0.35 0.37 0.39 0.39 0.37
0.72 0.68 0.65 0.60 0.54 0.46 0.38 0.35 0.35 0.33 0.29 0.23 0.20 0.17 0.17 0.12 0.11 0.06 0.02 0.03 0.03 0.02 0.03 0.04 0.04 0.04 0.04 0.04 0.05 0.05 0.07 0.07 0.10 0.17 0.27 0.39 0.45 0.46 0.50 0.53 0.56 0.60 0.57
0.65 0.68 0.67 0.64 0.57 0.49 0.44 0.41 0.38 0.36 0.31 0.27 0.23 0.21 0.20 0.14 0.11 0.13 0.08 0.05 0.05 0.06 0.06 0.05 0.05 0.05 0.06 0.07 0.08 0.10 0.13 0.13 0.16 0.22 0.31 0.43 0.57 0.65 0.69 0.71 0.72 0.73 0.72
0.59 0.59 0.61 0.56 0.52 0.47 0.44 0.44 0.44 0.42 0.38 0.32 0.26 0.25 0.25 0.21 0.14 0.15 0.16 0.12 0.10 0.09 0.07 0.07 0.07 0.08 0.09 0.11 0.14 0.19 0.22 0.23 0.26 0.33 0.42 0.54 0.65 0.75 0.81 0.85 0.88 0.88 0.85
0.53 0.50 0.51 0.50 0.49 0.49 0.52 0.52 0.48 0.45 0.43 0.38 0.32 0.27 0.26 0.25 0.23 0.23 0.24 0.19 0.15 0.12 0.11 0.11 0.12 0.13 0.15 0.18 0.24 0.34 0.36 0.39 0.41 0.46 0.57 0.68 0.74 0.76 0.76 0.81 0.92 1.00 1.00
0.48 0.52 0.50 0.48 0.47 0.46 0.44 0.45 0.46 0.44 0.43 0.41 0.37 0.32 0.28 0.25 0.26 0.29 0.32 0.36 0.35 0.29 0.24 0.24 0.24 0.27 0.30 0.35 0.43 0.51 0.49 0.56 0.58 0.64 0.75 0.88 0.85 0.75 0.69 0.70 0.77 0.84 0.86
0.41 0.40 0.41 0.39 0.37 0.36 0.36 0.37 0.38 0.38 0.37 0.36 0.35 0.34 0.31 0.30 0.32 0.36 0.43 0.53 0.65 0.65 0.54 0.45 0.45 0.47 0.49 0.52 0.60 0.58 0.55 0.66 0.70 0.73 0.77 0.77 0.70 0.62 0.59 0.60 0.61 0.64 0.63
0.32 0.31 0.30 0.28 0.26 0.26 0.25 0.26 0.27 0.27 0.27 0.26 0.27 0.30 0.33 0.35 0.39 0.42 0.48 0.55 0.64 0.73 0.71 0.57 0.52 0.55 0.60 0.63 0.67 0.59 0.56 0.64 0.63 0.63 0.64 0.60 0.54 0.50 0.47 0.45 0.43 0.44 0.45
0.22 0.23 0.23 0.22 0.20 0.19 0.18 0.18 0.17 0.16 0.17 0.17 0.18 0.21 0.25 0.27 0.32 0.37 0.42 0.51 0.60 0.71 0.79 0.73 0.66 0.66 0.66 0.63 0.59 0.50 0.44 0.42 0.41 0.45 0.43 0.40 0.37 0.35 0.33 0.32 0.33 0.35 0.36
0.17 0.19 0.19 0.17 0.15 0.14 0.13 0.12 0.12 0.12 0.12 0.14 0.15 0.17 0.20 0.22 0.26 0.30 0.37 0.46 0.55 0.62 0.67 0.65 0.59 0.54 0.48 0.41 0.35 0.30 0.25 0.22 0.21 0.24 0.23 0.22 0.21 0.19 0.18 0.18 0.20 0.22 0.22
0.13 0.13 0.12 0.11 0.10 0.09 0.09 0.08 0.09 0.10 0.11 0.12 0.14 0.17 0.20 0.23 0.27 0.32 0.38 0.44 0.48 0.49 0.47 0.44 0.38 0.33 0.27 0.23 0.19 0.15 0.11 0.09 0.08 0.08 0.08 0.08 0.07 0.07 0.07 0.09 0.10 0.10 0.10
0.10 0.08 0.07 0.06 0.06 0.07 0.08 0.08 0.09 0.10 0.12 0.15 0.18 0.23 0.27 0.33 0.39 0.44 0.45 0.45 0.41 0.35 0.31 0.27 0.24 0.21 0.16 0.12 0.09 0.08 0.06 0.04 0.03 0.02 0.02 0.02 0.02 0.02 0.02 0.02 0.03 0.03 0.03
0.06 0.05 0.06 0.06 0.07 0.08 0.09 0.10 0.11 0.13 0.17 0.21 0.26 0.32 0.38 0.46 0.47 0.42 0.35 0.29 0.24 0.20 0.20 0.22 0.19 0.13 0.09 0.06 0.05 0.04 0.04 0.03 0.02 0.01 0.01 0.00 0.00 0.00 0.00 0.00 0.01 0.01 0.01
0.08 0.08 0.09 0.10 0.11 0.12 0.20 0.18 0.15 0.17 0.24 0.30 0.34 0.36 0.37 0.38 0.32 0.28 0.22 0.18 0.16 0.19 0.19 0.15 0.10 0.07 0.04 0.02 0.02 0.03 0.04 0.06 0.04 0.00 0.01 0.00 0.00 0.00 0.00 0.00 0.00 0.01 0.01
0.17 0.17 0.16 0.16 0.18 0.24 0.31 0.30 0.32 0.30 0.33 0.35 0.33 0.30 0.25 0.21 0.18 0.13 0.12 0.12 0.13 0.13 0.09 0.06 0.04 0.02 0.01 0.02 0.05 0.08 0.07 0.08 0.05 0.01 0.01 0.01 0.00 0.00 0.00 0.00 0.00 0.00 0.01
0.36 0.36 0.35 0.35 0.36 0.42 0.45 0.40 0.36 0.31 0.29 0.27 0.23 0.18 0.14 0.11 0.08 0.07 0.08 0.09 0.05 0.02 0.01 0.01 0.01 0.01 0.02 0.03 0.06 0.10 0.09 0.06 0.02 0.00 0.00 0.01 0.00 0.00 0.00 0.00 0.00 0.00 0.00
0.63 0.62 0.61 0.59 0.56 0.53 0.46 0.35 0.26 0.21 0.17 0.13 0.09 0.06 0.05 0.04 0.03 0.05 0.06 0.04 0.01 0.00 0.00 0.01 0.02 0.02 0.03 0.03 0.03 0.03 0.03 0.07 0.05 0.00 0.00 0.00 0.00 0.00 0.00 0.00 0.00 0.00 0.00
0.60 0.57 0.55 0.50 0.44 0.36 0.27 0.18 0.11 0.08 0.05 0.03 0.01 0.01 0.01 0.01 0.03 0.06 0.05 0.03 0.01 0.00 0.01 0.01 0.00 0.00 0.00 0.00 0.00 0.00 0.03 0.14 0.15 0.08 0.00 0.02 0.03 0.05 0.09 0.01 0.00 0.00 0.00